| time (UTC) | temp C | wind direction | speed KPH | gust KPH | rain 1hr cm | rain 24hr cm | rain mn cm | humidity % | barometer mb |
| 20260504002403 | 12 | 300 | 0.0 | 3.2 | 0.00 | 0.00 | 0.00 | 37 | 1014.9 |
| 20260504001903 | 12 | 302 | 1.6 | 3.2 | 0.00 | 0.00 | 0.00 | 37 | 1014.8 |
| 20260504001403 | 12 | 309 | 1.6 | 3.2 | 0.00 | 0.00 | 0.00 | 38 | 1014.8 |
| 20260504000903 | 12 | 300 | 1.6 | 3.2 | 0.00 | 0.00 | 0.00 | 37 | 1014.9 |
| 20260504000403 | 12 | 283 | 0.0 | 3.2 | 0.00 | 0.00 | 0.00 | 37 | 1014.9 |
| 20260503235902 | 13 | 282 | 0.0 | 3.2 | 0.00 | 0.00 | 0.00 | 38 | 1014.8 |
| 20260503235402 | 13 | 271 | 0.0 | 6.4 | 0.00 | 0.00 | 0.00 | 36 | 1014.8 |
| 20260503234903 | 13 | 279 | 1.6 | 6.4 | 0.00 | 0.00 | 0.00 | 36 | 1014.8 |
| 20260503233900 | 14 | 269 | 1.6 | 6.4 | 0.00 | 0.00 | 0.00 | 34 | 1014.7 |
| 20260503233402 | 14 | 282 | 1.6 | 8.0 | 0.00 | 0.00 | 0.00 | 34 | 1014.7 |
| 20260503232856 | 15 | 275 | 3.2 | 8.0 | 0.00 | 0.00 | 0.00 | 36 | 1014.6 |
| 20260503231351 | 15 | 305 | 1.6 | 17.7 | 0.00 | 0.00 | 0.00 | 33 | 1014.4 |
| 20260503230844 | 15 | 0 | 8.0 | 17.7 | 0.00 | 0.00 | 0.00 | 30 | 1014.5 |
| 20260503225841 | 15 | 0 | 4.8 | 9.7 | 0.00 | 0.00 | 0.00 | 30 | 1014.5 |
| 20260503225342 | 16 | 343 | 3.2 | 8.0 | 0.00 | 0.00 | 0.00 | 32 | 1014.5 |
| 20260503224839 | 16 | 293 | 4.8 | 14.5 | 0.00 | 0.00 | 0.00 | 30 | 1014.5 |
| 20260503224338 | 16 | 351 | 4.8 | 14.5 | 0.00 | 0.00 | 0.00 | 30 | 1014.5 |
| 20260503223840 | 16 | 292 | 3.2 | 8.0 | 0.00 | 0.00 | 0.00 | 31 | 1014.4 |
| 20260503223338 | 16 | 221 | 3.2 | 16.1 | 0.00 | 0.00 | 0.00 | 30 | 1014.3 |
| 20260503222838 | 16 | 255 | 6.4 | 16.1 | 0.00 | 0.00 | 0.00 | 29 | 1014.3 |
| 20260503222338 | 16 | 261 | 3.2 | 9.7 | 0.00 | 0.00 | 0.00 | 29 | 1014.4 |
| 20260503221836 | 16 | 289 | 3.2 | 11.3 | 0.00 | 0.00 | 0.00 | 31 | 1014.6 |
| 20260503221332 | 16 | 292 | 6.4 | 11.3 | 0.00 | 0.00 | 0.00 | 29 | 1014.5 |
| 20260503220832 | 16 | 316 | 6.4 | 16.1 | 0.00 | 0.00 | 0.00 | 30 | 1014.5 |
| 20260503220331 | 16 | 283 | 8.0 | 16.1 | 0.00 | 0.00 | 0.00 | 31 | 1014.6 |
| 20260503215331 | 16 | 259 | 1.6 | 17.7 | 0.00 | 0.00 | 0.00 | 31 | 1014.6 |
| 20260503214320 | 16 | 272 | 9.7 | 19.3 | 0.00 | 0.00 | 0.00 | 29 | 1014.7 |
| 20260503213819 | 16 | 4 | 9.7 | 19.3 | 0.00 | 0.00 | 0.00 | 28 | 1014.5 |
| 20260503213318 | 16 | 344 | 8.0 | 19.3 | 0.00 | 0.00 | 0.00 | 30 | 1014.6 |
| 20260503212320 | 17 | 296 | 11.3 | 20.9 | 0.00 | 0.00 | 0.00 | 30 | 1014.6 |
| 20260503211819 | 17 | 320 | 6.4 | 14.5 | 0.00 | 0.00 | 0.00 | 31 | 1014.6 |
| 20260503211319 | 17 | 279 | 4.8 | 16.1 | 0.00 | 0.00 | 0.00 | 31 | 1014.6 |
| 20260503210818 | 17 | 309 | 6.4 | 16.1 | 0.00 | 0.00 | 0.00 | 29 | 1014.6 |
| 20260503210319 | 16 | 278 | 4.8 | 17.7 | 0.00 | 0.00 | 0.00 | 29 | 1014.6 |
| 20260503205819 | 16 | 0 | 9.7 | 17.7 | 0.00 | 0.00 | 0.00 | 28 | 1014.8 |
| 20260503205318 | 17 | 0 | 8.0 | 17.7 | 0.00 | 0.00 | 0.00 | 31 | 1014.8 |
| 20260503204820 | 17 | 279 | 8.0 | 24.1 | 0.00 | 0.00 | 0.00 | 31 | 1014.7 |
| 20260503204318 | 16 | 264 | 9.7 | 24.1 | 0.00 | 0.00 | 0.00 | 28 | 1014.7 |
| 20260503203819 | 16 | 0 | 6.4 | 17.7 | 0.00 | 0.00 | 0.00 | 30 | 1014.7 |
| 20260503202818 | 17 | 269 | 6.4 | 16.1 | 0.00 | 0.00 | 0.00 | 30 | 1014.8 |
| 20260503201818 | 16 | 0 | 9.7 | 22.5 | 0.00 | 0.00 | 0.00 | 30 | 1014.9 |
| 20260503201319 | 16 | 240 | 6.4 | 19.3 | 0.00 | 0.00 | 0.00 | 28 | 1015.1 |
| 20260503200818 | 17 | 286 | 6.4 | 14.5 | 0.00 | 0.00 | 0.00 | 29 | 1015.1 |
| 20260503200320 | 16 | 305 | 3.2 | 17.7 | 0.00 | 0.00 | 0.00 | 29 | 1015.0 |
| 20260503195819 | 16 | 0 | 3.2 | 19.3 | 0.00 | 0.00 | 0.00 | 34 | 1015.0 |
| 20260503195318 | 17 | 0 | 11.3 | 19.3 | 0.00 | 0.00 | 0.00 | 34 | 1015.1 |
| 20260503194819 | 16 | 0 | 9.7 | 16.1 | 0.00 | 0.00 | 0.00 | 33 | 1015.2 |
| 20260503193820 | 16 | 306 | 6.4 | 22.5 | 0.00 | 0.00 | 0.00 | 30 | 1015.4 |
| 20260503193319 | 17 | 0 | 9.7 | 22.5 | 0.00 | 0.00 | 0.00 | 28 | 1015.6 |
| 20260503192818 | 16 | 292 | 9.7 | 14.5 | 0.00 | 0.00 | 0.00 | 28 | 1015.6 |
| 20260503192318 | 15 | 257 | 3.2 | 20.9 | 0.00 | 0.00 | 0.00 | 28 | 1015.6 |
| 20260503191819 | 16 | 0 | 8.0 | 20.9 | 0.00 | 0.00 | 0.00 | 30 | 1015.8 |
| 20260503191318 | 16 | 258 | 9.7 | 19.3 | 0.00 | 0.00 | 0.00 | 32 | 1015.9 |
| 20260503190819 | 16 | 0 | 8.0 | 19.3 | 0.00 | 0.00 | 0.00 | 29 | 1015.8 |
| 20260503190320 | 16 | 0 | 4.8 | 17.7 | 0.00 | 0.00 | 0.00 | 29 | 1015.8 |
| 20260503185818 | 16 | 25 | 6.4 | 22.5 | 0.00 | 0.00 | 0.00 | 30 | 1016.0 |
| 20260503185320 | 16 | 0 | 8.0 | 22.5 | 0.00 | 0.00 | 0.00 | 30 | 1016.3 |
| 20260503184820 | 16 | 0 | 9.7 | 19.3 | 0.00 | 0.00 | 0.00 | 31 | 1016.2 |
| 20260503184318 | 16 | 327 | 8.0 | 19.3 | 0.00 | 0.00 | 0.00 | 30 | 1016.2 |
| 20260503183818 | 16 | 0 | 8.0 | 17.7 | 0.00 | 0.00 | 0.00 | 32 | 1016.1 |
| 20260503183318 | 16 | 0 | 9.7 | 22.5 | 0.00 | 0.00 | 0.00 | 33 | 1016.4 |
| 20260503182820 | 16 | 347 | 11.3 | 22.5 | 0.00 | 0.00 | 0.00 | 34 | 1016.3 |
| 20260503182319 | 15 | 283 | 9.7 | 17.7 | 0.00 | 0.00 | 0.00 | 34 | 1016.3 |
| 20260503181820 | 15 | 245 | 4.8 | 11.3 | 0.00 | 0.00 | 0.00 | 33 | 1016.3 |
| 20260503180820 | 15 | 285 | 9.7 | 17.7 | 0.00 | 0.00 | 0.00 | 33 | 1016.4 |
| 20260503180319 | 15 | 275 | 8.0 | 17.7 | 0.00 | 0.00 | 0.00 | 34 | 1016.4 |
| 20260503175818 | 15 | 292 | 3.2 | 17.7 | 0.00 | 0.00 | 0.00 | 39 | 1016.4 |
| 20260503175318 | 15 | 329 | 9.7 | 19.3 | 0.00 | 0.00 | 0.00 | 33 | 1016.6 |
| 20260503174819 | 15 | 358 | 6.4 | 19.3 | 0.00 | 0.00 | 0.00 | 31 | 1016.6 |
| 20260503174319 | 15 | 296 | 9.7 | 16.1 | 0.00 | 0.00 | 0.00 | 33 | 1016.6 |
| 20260503173319 | 13 | 292 | 3.2 | 17.7 | 0.00 | 0.00 | 0.00 | 34 | 1016.6 |
| 20260503172816 | 15 | 276 | 6.4 | 16.1 | 0.00 | 0.00 | 0.00 | 33 | 1016.8 |
| 20260503172310 | 14 | 0 | 6.4 | 20.9 | 0.00 | 0.00 | 0.00 | 36 | 1017.0 |
| 20260503171804 | 15 | 261 | 8.0 | 20.9 | 0.00 | 0.00 | 0.00 | 36 | 1017.0 |
| 20260503171302 | 14 | 231 | 6.4 | 19.3 | 0.00 | 0.00 | 0.00 | 34 | 1017.0 |
| 20260503150726 | 12 | 309 | 8.0 | 19.3 | 0.00 | 0.00 | 0.00 | 40 | 1018.2 |
| 20260503150223 | 12 | 290 | 8.0 | 20.9 | 0.00 | 0.00 | 0.00 | 41 | 1018.0 |
| 20260503140217 | 10 | 338 | 9.7 | 22.5 | 0.00 | 0.00 | 0.00 | 44 | 1018.3 |
| 20260503130716 | 8 | 0 | 9.7 | 27.4 | 0.00 | 0.00 | 0.00 | 48 | 1018.2 |
| 20260503130214 | 8 | 0 | 11.3 | 27.4 | 0.00 | 0.00 | 0.00 | 48 | 1018.2 |
| 20260503110656 | 5 | 0 | 0.0 | 6.4 | 0.00 | 0.00 | 0.00 | 61 | 1017.4 |
| 20260503100133 | 3 | 313 | 1.6 | 3.2 | 0.00 | 0.00 | 0.00 | 69 | 1016.4 |
| 20260503090118 | 4 | 305 | 1.6 | 6.4 | 0.00 | 0.00 | 0.00 | 66 | 1016.1 |
| 20260503081617 | 5 | 306 | 4.8 | 8.0 | 0.00 | 0.00 | 0.00 | 64 | 1016.1 |
| 20260503081118 | 5 | 298 | 3.2 | 6.4 | 0.00 | 0.00 | 0.00 | 66 | 1016.1 |
| 20260503080618 | 5 | 295 | 3.2 | 4.8 | 0.00 | 0.00 | 0.00 | 66 | 1016.1 |
| 20260503080117 | 5 | 298 | 1.6 | 3.2 | 0.00 | 0.00 | 0.00 | 66 | 1016.1 |
| 20260503072617 | 5 | 306 | 3.2 | 8.0 | 0.00 | 0.00 | 0.00 | 63 | 1015.8 |
| 20260503072118 | 5 | 310 | 3.2 | 8.0 | 0.00 | 0.00 | 0.00 | 64 | 1015.7 |
| 20260503071618 | 5 | 326 | 1.6 | 8.0 | 0.00 | 0.00 | 0.00 | 63 | 1015.7 |
| 20260503071117 | 5 | 302 | 3.2 | 8.0 | 0.00 | 0.00 | 0.00 | 63 | 1015.6 |
| 20260503070617 | 5 | 303 | 1.6 | 6.4 | 0.00 | 0.00 | 0.00 | 63 | 1015.6 |
| 20260503070117 | 5 | 326 | 3.2 | 6.4 | 0.00 | 0.00 | 0.00 | 63 | 1015.6 |
| 20260503060117 | 5 | 310 | 3.2 | 4.8 | 0.00 | 0.00 | 0.00 | 65 | 1015.3 |
| 20260503055117 | 5 | 300 | 1.6 | 3.2 | 0.00 | 0.00 | 0.00 | 65 | 1015.3 |
| 20260503054617 | 6 | 305 | 0.0 | 3.2 | 0.00 | 0.00 | 0.00 | 63 | 1015.3 |
| 20260503054117 | 6 | 305 | 1.6 | 3.2 | 0.00 | 0.00 | 0.00 | 63 | 1015.3 |
| 20260503053117 | 6 | 310 | 1.6 | 8.0 | 0.00 | 0.00 | 0.00 | 61 | 1015.4 |
| 20260503052618 | 6 | 295 | 3.2 | 11.3 | 0.00 | 0.00 | 0.00 | 61 | 1015.4 |
| 20260503052117 | 6 | 306 | 3.2 | 11.3 | 0.00 | 0.00 | 0.00 | 60 | 1015.5 |
| 20260503051618 | 6 | 0 | 4.8 | 9.7 | 0.00 | 0.00 | 0.00 | 61 | 1015.5 |
| 20260503051118 | 6 | 306 | 4.8 | 8.0 | 0.00 | 0.00 | 0.00 | 60 | 1015.6 |
| 20260503050617 | 6 | 306 | 4.8 | 9.7 | 0.00 | 0.00 | 0.00 | 60 | 1015.6 |
| 20260503050116 | 6 | 285 | 3.2 | 9.7 | 0.00 | 0.00 | 0.00 | 60 | 1015.5 |
| 20260503045615 | 6 | 309 | 3.2 | 14.5 | 0.00 | 0.00 | 0.00 | 60 | 1015.6 |
| 20260503045111 | 6 | 269 | 4.8 | 14.5 | 0.00 | 0.00 | 0.00 | 60 | 1015.5 |
| 20260503044612 | 6 | 319 | 6.4 | 17.7 | 0.00 | 0.00 | 0.00 | 59 | 1015.5 |
| 20260503044110 | 6 | 331 | 8.0 | 17.7 | 0.00 | 0.00 | 0.00 | 59 | 1015.6 |
| 20260503043114 | 6 | 320 | 11.3 | 20.9 | 0.00 | 0.00 | 0.00 | 59 | 1015.5 |
| 20260503042111 | 6 | 344 | 6.4 | 9.7 | 0.00 | 0.00 | 0.00 | 60 | 1015.4 |
| 20260503041610 | 6 | 324 | 4.8 | 14.5 | 0.00 | 0.00 | 0.00 | 60 | 1015.4 |
| 20260503041108 | 6 | 348 | 4.8 | 11.3 | 0.00 | 0.00 | 0.00 | 60 | 1015.5 |
| 20260503040605 | 6 | 319 | 4.8 | 9.7 | 0.00 | 0.00 | 0.00 | 60 | 1015.5 |
| 20260503040103 | 6 | 0 | 6.4 | 9.7 | 0.00 | 0.00 | 0.00 | 60 | 1015.5 |
| 20260503035604 | 6 | 329 | 4.8 | 8.0 | 0.00 | 0.00 | 0.00 | 60 | 1015.5 |
| 20260503035102 | 6 | 343 | 1.6 | 6.4 | 0.00 | 0.00 | 0.00 | 59 | 1015.5 |
| 20260503034604 | 6 | 350 | 1.6 | 14.5 | 0.00 | 0.00 | 0.00 | 59 | 1015.4 |
| 20260503034101 | 7 | 300 | 3.2 | 14.5 | 0.00 | 0.00 | 0.00 | 58 | 1015.5 |
| 20260503033601 | 7 | 347 | 3.2 | 16.1 | 0.00 | 0.00 | 0.00 | 58 | 1015.4 |
| 20260503033102 | 7 | 336 | 6.4 | 16.1 | 0.00 | 0.00 | 0.00 | 58 | 1015.4 |
| 20260503032602 | 7 | 0 | 4.8 | 11.3 | 0.00 | 0.00 | 0.00 | 57 | 1015.4 |
| 20260503032101 | 7 | 0 | 4.8 | 11.3 | 0.00 | 0.00 | 0.00 | 57 | 1015.4 |
| 20260503031602 | 7 | 0 | 1.6 | 3.2 | 0.00 | 0.00 | 0.00 | 57 | 1015.3 |
| 20260503031102 | 7 | 327 | 1.6 | 3.2 | 0.00 | 0.00 | 0.00 | 56 | 1015.3 |
| 20260503030602 | 7 | 1 | 0.0 | 4.8 | 0.00 | 0.00 | 0.00 | 57 | 1015.3 |
| 20260503025102 | 7 | 11 | 1.6 | 8.0 | 0.00 | 0.00 | 0.00 | 56 | 1015.4 |
| 20260503024559 | 7 | 24 | 3.2 | 6.4 | 0.00 | 0.00 | 0.00 | 55 | 1015.4 |
| 20260503024100 | 7 | 1 | 3.2 | 8.0 | 0.00 | 0.00 | 0.00 | 54 | 1015.4 |
| 20260503023555 | 7 | 0 | 6.4 | 11.3 | 0.00 | 0.00 | 0.00 | 54 | 1015.4 |
| 20260503023044 | 8 | 0 | 6.4 | 11.3 | 0.00 | 0.00 | 0.00 | 53 | 1015.4 |
| 20260503022545 | 8 | 344 | 4.8 | 11.3 | 0.00 | 0.00 | 0.00 | 54 | 1015.5 |
| 20260503021538 | 8 | 336 | 4.8 | 14.5 | 0.00 | 0.00 | 0.00 | 53 | 1015.4 |
| 20260503020549 | 8 | 1 | 4.8 | 14.5 | 0.00 | 0.00 | 0.00 | 52 | 1015.4 |
| 20260503020036 | 8 | 1 | 6.4 | 14.5 | 0.00 | 0.00 | 0.00 | 52 | 1015.3 |
| 20260503015530 | 8 | 337 | 6.4 | 14.5 | 0.00 | 0.00 | 0.00 | 51 | 1015.3 |
| 20260503015029 | 9 | 305 | 4.8 | 11.3 | 0.00 | 0.00 | 0.00 | 51 | 1015.4 |
| 20260503014529 | 9 | 355 | 3.2 | 8.0 | 0.00 | 0.00 | 0.00 | 51 | 1015.2 |
| 20260503014029 | 9 | 355 | 1.6 | 8.0 | 0.00 | 0.00 | 0.00 | 51 | 1015.2 |
| 20260503013524 | 9 | 331 | 3.2 | 6.4 | 0.00 | 0.00 | 0.00 | 51 | 1015.1 |
| 20260503012017 | 9 | 8 | 4.8 | 8.0 | 0.00 | 0.00 | 0.00 | 51 | 1014.9 |
| 20260503011517 | 9 | 358 | 0.0 | 8.0 | 0.00 | 0.00 | 0.00 | 50 | 1014.7 |
| 20260503011016 | 10 | 336 | 3.2 | 11.3 | 0.00 | 0.00 | 0.00 | 49 | 1014.6 |
| 20260503010517 | 10 | 47 | 4.8 | 11.3 | 0.00 | 0.00 | 0.00 | 49 | 1014.4 |
| 20260503010014 | 10 | 78 | 3.2 | 6.4 | 0.00 | 0.00 | 0.00 | 50 | 1014.4 |
| 20260503005515 | 10 | 0 | 4.8 | 8.0 | 0.00 | 0.00 | 0.00 | 49 | 1014.4 |
| 20260503004513 | 10 | 347 | 6.4 | 11.3 | 0.00 | 0.00 | 0.00 | 48 | 1014.3 |
| 20260503004011 | 10 | 7 | 4.8 | 11.3 | 0.00 | 0.00 | 0.00 | 48 | 1014.1 |
| 20260503003510 | 10 | 7 | 6.4 | 9.7 | 0.00 | 0.00 | 0.00 | 49 | 1013.9 |
| 20260503003010 | 10 | 20 | 6.4 | 9.7 | 0.00 | 0.00 | 0.00 | 48 | 1013.9 |